Location: Devore Heights
(34.2372°N, 117.4156°W)
Time: 19:41:16
(UTC+00:00)

S-56A Canister/Altair - Pass Details

Date: 20 September 2024
Orbit: 636 x 2487 km, 38.9° (Epoch: 14 October)

Event Time Altitude Azimuth Distance (km) Brightness Sun altitude
Rises 22:25:53 0° 206° (SSW) 3,009 11.3 39.2°
Reaches altitude 10° 22:28:51 10° 187° (S) 2,021 10.3 38.7°
Maximum altitude 22:31:58 19° 142° (SE) 1,524 9.2 38.1°
Drops below altitude 10° 22:35:11 10° 97° (E) 2,082 9.5 37.6°
Sets 22:38:17 0° 79° (E) 3,136 10.2 37.0°
